[[{"header":{"parameterUnit":"m.s-1","parameterCategory":1,"la1":30.2991,"la2":30.254,"lo1":-89.0895,"lo2":-89.0444,"dy":0.0017,"dx":0.0017,"nx":28,"ny":28,"refTime":"2023-08-13T21:00:00:Z","depth":0,"parameterNumber":2,"parameterNumberName":"U-component_of_WINDS"},"data":[0,0,0,0,0,0,0,0,0,0,0,0,0,0,0,0,0,0,0,0,0,0,0,0,0,0,0,0,0,0,0,0,0,0,0,0,0,0,0,0,0,0,0,0,0,0,0,0,0,0,0,0,0,0,0,0,0,0,2.6502,2.6502,0,2.652,2.6521,2.6521,2.6466,2.6465,2.6463,2.6461,2.6484,2.6486,2.6488,0,0,0,0,0,0,0,0,0,0,0,0,0,2.6424,2.6425,2.6502,2.6502,2.6502,2.652,2.6521,2.6521,2.6467,2.6464,2.6462,2.6461,2.6483,2.6485,2.6488,0,0,0,0,0,0,0,0,0,0,0,0,0,2.6452,2.6426,2.6501,2.6477,2.6475,2.652,2.6521,2.6521,2.6467,2.6464,2.6462,2.646,2.6482,2.6485,2.6488,2.6559,0,0,2.6498,2.65,0,0,0,0,0,0,0,0,2.645,2.6454,2.648,2.6479,2.6477,2.6488,2.6501,2.6534,2.6468,2.647,2.6461,2.6458,2.6487,2.649,2.6499,2.656,2.6561,2.6499,2.6501,2.6502,2.6503,0,0,0,0,0,0,0,2.6448,2.6453,2.6509,2.6481,2.6479,2.6467,2.6468,2.6507,2.6493,2.647,2.6466,2.6469,2.6486,2.6496,2.6499,2.6561,2.6499,2.6501,2.6503,2.6505,2.6685,2.6688,0,0,0,0,0,0,2.6449,2.6452,2.6508,2.651,2.6457,2.647,2.6472,2.6487,2.6492,2.6491,2.6471,2.6466,2.6492,2.6496,2.65,2.6585,2.6502,2.6505,2.6507,2.6682,2.6686,2.6689,0,0,0,0,0,0,2.6447,2.6454,2.6508,2.648,2.6486,2.6474,2.6492,2.6489,2.6499,2.6493,2.6491,2.6484,2.649,2.6495,2.6545,2.6585,2.6507,2.6509,2.6679,2.6683,2.6687,2.6754,0,0,0,0,0,0,2.6445,2.6454,2.6479,2.6481,2.6487,2.6551,2.6495,2.6491,2.6504,2.6498,2.6504,2.6503,2.6489,2.6541,2.6549,2.6588,2.6512,2.6675,2.6681,2.6686,2.6748,2.676,2.677,0,0,0,0,0,2.6443,2.6497,2.6481,2.6488,2.6519,2.6554,2.6557,2.6539,2.6508,2.6534,2.6531,2.6503,2.6579,2.6546,2.6555,2.6596,2.6673,2.6679,2.6685,2.6743,2.6758,2.677,0,0,0,0,0,0,2.6501,2.6497,2.6479,2.6535,2.6545,2.6544,2.6576,2.6554,2.6574,2.6567,2.6545,2.6547,2.6602,2.6603,2.6567,2.6666,2.6621,2.6629,2.6662,2.6676,2.6687,2.6685,2.6515,0,0,0,0,0,2.6521,2.6548,2.6544,2.6594,2.66,2.6588,2.6602,2.6587,2.6597,2.6601,2.6601,2.6613,2.664,2.6658,2.6682,2.6749,2.6751,2.6781,2.6792,2.6801,2.6809,2.6847,2.6861,2.671,2.671,2.6709,0,0,2.6561,2.6562,2.6581,2.6606,2.6612,2.6643,2.6592,2.6625,2.6649,2.6607,2.6654,2.6655,2.6667,2.6726,2.6752,2.6729,2.6851,2.681,2.6817,2.6819,2.6855,2.6869,2.6882,2.6714,2.6713,2.6712,0,0,2.665,2.6653,2.6697,2.6704,2.6714,2.6706,2.6717,2.672,2.6719,2.6766,2.6736,2.6765,2.6811,2.6821,2.6832,2.693,2.6906,2.6939,2.6996,2.7033,2.7045,2.7055,2.7092,2.7105,2.6946,2.6946,2.6947,0,2.6699,2.6743,2.6722,2.6759,2.6772,2.6736,2.6781,2.6789,2.6807,2.6818,2.6792,2.6851,2.6857,2.6919,2.6943,2.6953,2.6966,2.6937,2.7045,2.7055,2.7064,2.7099,2.7112,2.695,2.695,2.695,2.6949,0,2.6804,2.6835,2.6869,2.6887,2.6904,2.6945,2.6933,2.6953,2.6938,2.6933,2.6983,2.6989,2.7015,2.7029,2.7014,2.709,2.7076,2.7048,2.7002,2.7083,2.7115,2.7128,2.6956,2.6955,2.6953,2.6952,0,0,2.6928,2.6936,2.6949,2.6958,2.6968,2.6992,2.7033,2.7058,2.7077,2.7092,2.7126,2.7168,2.7143,2.7156,2.7143,2.7176,2.7255,2.7144,2.7144,2.7165,2.7342,2.7362,2.7378,2.7239,2.7242,2.7244,2.7341,0,2.7017,2.7085,2.7069,2.7138,2.7168,2.7136,2.7172,2.7183,2.7181,2.7207,2.7206,2.7236,2.72,2.7208,2.7239,2.7239,2.729,2.7231,2.7273,2.7275,2.7271,2.7394,2.7416,2.7507,2.7353,2.7355,2.7357,0,2.7128,2.7148,2.7219,2.7227,2.7239,2.7271,2.7294,2.732,2.7333,2.733,2.7346,2.7327,2.737,2.7325,2.7385,2.7346,2.7362,2.7365,2.7368,2.7371,2.732,2.7401,2.7535,2.7549,2.7376,2.7374,2.7373,0,2.7213,2.7257,2.7306,2.7315,2.7325,2.7349,2.7354,2.7365,2.7382,2.7403,2.7414,2.7441,2.7455,2.7477,2.7467,2.7434,2.753,2.7483,2.7529,2.753,2.755,2.7549,2.7689,2.7561,2.7561,2.756,2.756,0,2.7314,2.7359,2.7345,2.7375,2.7426,2.7408,2.746,2.7462,2.7472,2.7504,2.7478,2.7509,2.7494,2.7524,2.7517,2.7569,2.7575,2.7575,2.7572,2.7577,2.7577,2.7587,2.758,2.7564,2.7563,2.7563,2.7562,0,2.7416,2.7408,2.746,2.7466,2.7468,2.7506,2.7512,2.7541,2.7538,2.7579,2.7587,2.7583,2.7618,2.761,2.7648,2.7643,2.7709,2.7699,2.7704,2.7702,2.7749,2.7744,2.79,2.792,2.7779,2.7781,2.7782,0,2.7481,2.7515,2.7525,2.7544,2.7552,2.7583,2.76,2.7586,2.7606,2.7626,2.7653,2.7686,2.771,2.7768,2.7769,2.7799,2.7789,2.7842,2.7793,2.7798,2.7791,2.7788,2.7793,2.7851,2.7853,2.7854,2.7855,0,2.7597,2.7592,2.7617,2.7643,2.7665,2.7684,2.7702,2.7719,2.7707,2.7731,2.7766,2.7785,2.7825,2.7858,2.7886,2.7893,2.7873,2.7871,2.7883,2.7888,2.789,2.789,2.773,2.7867,2.7866,2.7865,2.7864,2.7864,2.7682,2.7712,2.7724,2.7755,2.7767,2.7784,2.7813,2.7814,2.7843,2.7873,2.7864,2.7904,2.792,2.7956,2.7967,2.8,2.798,2.7998,2.8002,2.8007,2.8013,2.7885,2.8005,2.8004,2.8004,2.8004,2.8004,0,2.7797,2.7804,2.7832,2.7858,2.7883,2.7862,2.7881,2.7903,2.7938,2.7955,2.798,2.8022,2.8055,2.806,2.8092,2.8117,2.8109,2.8126,2.8123,2.8126,2.8028,2.8014,2.8132,2.8132,2.8132,2.8132,2.8132,2.8132,2.7859,2.7909,2.7907,2.7963,2.797,2.8009,2.8022,2.8039,2.8052,2.8099,2.8126,2.8129,2.8142,2.8175,2.8205,2.8206,2.8219,2.824,2.8238,2.8146,2.8133,2.812,2.8107,2.8243,2.8243,2.8333,2.8334,2.8334]},{"header":{"parameterUnit":"m.s-1","parameterCategory":1,"la1":30.2991,"la2":30.254,"lo1":-89.0895,"lo2":-89.0444,"dy":0.0017,"dx":0.0017,"nx":28,"ny":28,"refTime":"2023-08-13T21:00:00:Z","depth":0,"parameterNumber":3,"parameterNumberName":"V-component_of_WINDS"},"data":[0,0,0,0,0,0,0,0,0,0,0,0,0,0,0,0,0,0,0,0,0,0,0,0,0,0,0,0,0,0,0,0,0,0,0,0,0,0,0,0,0,0,0,0,0,0,0,0,0,0,0,0,0,0,0,0,0,0,3.9658,3.966,0,3.991,3.9913,3.9916,3.9923,3.992,3.9916,3.9914,4.0171,4.018,4.019,0,0,0,0,0,0,0,0,0,0,0,0,0,3.9176,3.9184,3.9657,3.966,3.9664,3.991,3.9913,3.9917,3.9923,3.9919,3.9916,3.9912,4.0168,4.0179,4.0191,0,0,0,0,0,0,0,0,0,0,0,0,0,3.9402,3.9187,3.9657,3.9697,3.9703,3.9909,3.9913,3.9917,3.9924,3.9919,3.9915,3.991,4.0164,4.0178,4.0192,4.0375,0,0,4.0237,4.0243,0,0,0,0,0,0,0,0,3.9389,3.942,3.9688,3.9694,3.9701,3.988,3.9838,4.0071,3.9925,3.984,3.9913,3.9908,4.0078,4.0099,4.0157,4.0387,4.0398,4.0238,4.0247,4.0253,4.0257,0,0,0,0,0,0,0,3.9374,3.9409,3.9757,3.9691,3.97,3.97,3.9727,3.9882,3.9982,3.9847,3.9848,3.9878,4.0081,4.0143,4.0163,4.0402,4.0238,4.0251,4.026,4.0265,4.0788,4.0793,0,0,0,0,0,0,3.935,3.9396,3.9749,3.9765,3.9531,3.9713,3.9743,3.9827,3.998,3.9999,3.9882,3.9877,4.012,4.0146,4.0172,4.0391,4.0253,4.0267,4.0275,4.0783,4.0789,4.0795,0,0,0,0,0,0,3.934,3.9382,3.9739,3.9581,3.9626,3.9726,3.9821,3.9835,3.9897,4.0006,4.0024,3.9927,4.0117,4.0151,4.0323,4.04,4.0273,4.0287,4.0777,4.0785,4.0792,4.0834,0,0,0,0,0,0,3.9326,3.9378,3.945,3.9582,3.9635,3.9888,3.9826,3.9843,3.9922,3.9919,4.0053,4.0071,4.0116,4.0301,4.0338,4.0418,4.0298,4.077,4.078,4.0789,4.0826,4.0842,4.0856,0,0,0,0,0,3.9309,3.9453,3.9454,3.9497,3.9727,3.9893,3.9922,3.9972,3.9929,4.0,4.0069,4.0067,4.0386,4.0319,4.036,4.0446,4.0766,4.0778,4.0789,4.082,4.0839,4.0856,0,0,0,0,0,0,3.9329,3.9472,3.9474,3.9666,3.9767,3.9893,3.9986,3.9992,4.0107,4.0099,4.0155,4.0185,4.0355,4.0418,4.034,4.0627,4.057,4.0591,4.058,4.0599,4.0614,4.0594,4.031,0,0,0,0,0,3.9355,3.9479,3.9597,3.9754,3.9805,3.9886,3.9961,3.9989,4.0096,4.0139,4.0221,4.0324,4.0447,4.0527,4.0647,4.0835,4.0862,4.0914,4.0929,4.0941,4.0957,4.1055,4.1078,4.0833,4.0832,4.0832,0,0,3.9412,3.9505,3.958,3.976,3.9842,3.9966,3.9923,4.0058,4.0149,4.016,4.0326,4.0389,4.0507,4.0686,4.077,4.0744,4.1031,4.0956,4.0964,4.0974,4.107,4.1093,4.1113,4.084,4.0839,4.0838,0,0,3.9577,3.9662,3.98,3.9881,4.0005,4.0058,4.0091,4.0216,4.0258,4.0426,4.0434,4.0543,4.0756,4.0837,4.0907,4.1097,4.1097,4.1135,4.1212,4.1307,4.1326,4.1343,4.1407,4.1429,4.1151,4.1151,4.1151,0,3.9631,3.982,3.987,4.0003,4.008,4.0094,4.0232,4.0309,4.0465,4.0517,4.0486,4.0748,4.083,4.1025,4.1071,4.1129,4.1164,4.1119,4.132,4.1338,4.1354,4.1415,4.1439,4.1154,4.1154,4.1154,4.1153,0,3.9878,4.0008,4.0104,4.0253,4.0341,4.0477,4.0544,4.0627,4.0647,4.0701,4.0868,4.0965,4.1102,4.1151,4.1173,4.1349,4.1328,4.1308,4.1252,4.138,4.1438,4.1462,4.1159,4.1158,4.1157,4.1156,0,0,4.0064,4.0236,4.027,4.0335,4.047,4.0571,4.0705,4.0838,4.0905,4.1012,4.1122,4.1299,4.1279,4.1358,4.1389,4.1473,4.161,4.1442,4.1445,4.1466,4.1803,4.1815,4.1842,4.1611,4.1616,4.162,4.1792,0,4.0241,4.0479,4.0526,4.0732,4.085,4.0862,4.0978,4.1072,4.1125,4.1231,4.129,4.1413,4.1381,4.1427,4.1511,4.1576,4.1678,4.1564,4.1711,4.1716,4.1678,4.1873,4.1887,4.2045,4.1815,4.1819,4.1822,0,4.048,4.0589,4.0807,4.0921,4.0973,4.1076,4.1198,4.1302,4.1406,4.1439,4.1524,4.1544,4.1679,4.1617,4.1801,4.1723,4.1785,4.1825,4.1833,4.1846,4.1775,4.1888,4.2097,4.2119,4.1859,4.1856,4.1853,0,4.0587,4.0791,4.0945,4.1002,4.1141,4.1212,4.1272,4.1373,4.1448,4.1555,4.1603,4.1724,4.179,4.1882,4.1932,4.1883,4.2111,4.2055,4.2138,4.2137,4.2185,4.218,4.2403,4.223,4.223,4.2229,4.2229,0,4.0778,4.091,4.0995,4.109,4.1236,4.1287,4.1429,4.1489,4.1577,4.1681,4.17,4.1797,4.1859,4.1964,4.2004,4.2147,4.2178,4.2205,4.2214,4.2202,4.2198,4.2242,4.2231,4.2236,4.2234,4.2233,4.2232,0,4.0923,4.0987,4.1155,4.1272,4.1304,4.1406,4.1504,4.1595,4.1647,4.1778,4.1812,4.1893,4.2017,4.2077,4.2231,4.2257,4.2418,4.2422,4.2383,4.2386,4.2464,4.2454,4.2721,4.2756,4.2563,4.2565,4.2566,0,4.104,4.1141,4.1267,4.1338,4.14,4.1515,4.1591,4.1643,4.1721,4.1845,4.1919,4.2044,4.2146,4.2342,4.2414,4.253,4.2534,4.2619,4.2552,4.2534,4.253,4.2522,4.253,4.263,4.2632,4.2634,4.2635,0,4.1237,4.1262,4.1372,4.1491,4.158,4.1677,4.1771,4.1828,4.1895,4.1981,4.2107,4.2186,4.2341,4.2463,4.2583,4.2643,4.2649,4.2656,4.268,4.2668,4.264,4.2651,4.2412,4.2649,4.2648,4.2647,4.2646,4.2645,4.1369,4.1457,4.1558,4.1678,4.1754,4.184,4.193,4.1992,4.2099,4.2229,4.2253,4.2386,4.2483,4.2645,4.2708,4.281,4.2791,4.2828,4.2837,4.2844,4.2846,4.2625,4.2833,4.2833,4.2832,4.2832,4.2832,0,4.1563,4.1628,4.1738,4.1868,4.1961,4.1959,4.2062,4.2139,4.2256,4.2346,4.2446,4.2588,4.2704,4.2783,4.2901,4.2967,4.2972,4.2996,4.299,4.3002,4.2859,4.2824,4.2989,4.2989,4.2989,4.2989,4.2989,4.2989,4.1675,4.1823,4.1859,4.2042,4.2106,4.2237,4.2295,4.2373,4.2445,4.2603,4.27,4.2751,4.2835,4.2958,4.3063,4.3083,4.3123,4.3146,4.3165,4.303,4.3013,4.2997,4.2964,4.3156,4.3156,4.3299,4.33,4.3301]}]]